Sunday, July 22, 2018, 2:53 AM GMT
Back to Local

CWIG, Ile Aux Grues, Que.

Location: , , Canada Lat: 47.067
Local Time: 2:53 AM GMT ( 2:53 GMT) Lon: -70.533
Time Zone: GMT Elev: 59 ft

Show me the last for .
Show Coded

Time T Td Feel RH Dir Speed Gust Alt SLP Vis Weather Sky Remarks
2018-07-22 02:00 - - - 0 10° 7 - - - 0 None
2018-07-22 01:00 - - - 0 340° 5 - - - 0 None
2018-07-22 00:00 - - - 0 10° 8 - - - 0 None
2018-07-21 23:00 - - - 0 360° 7 - - - 0 None
2018-07-21 22:00 - - - 0 40° 8 - - - 0 None
2018-07-21 21:00 - - - 0 30° 5 - - - 0 None
2018-07-21 20:00 - - - 0 360° 6 - - - 0 None
2018-07-21 19:00 - - - 0 330° 5 - - - 0 None
2018-07-21 18:00 - - - 0 320° 5 - - - 0 None
2018-07-21 17:00 - - - 0 340° 5 - - - 0 None
2018-07-21 16:00 - - - 0 330° 5 - - - 0 None
2018-07-21 15:00 - - - 0 290° 6 - - - 0 None
2018-07-21 14:00 - - - 0 290° 6 - - - 0 None
2018-07-21 13:00 - - - 0 270° 3 - - - 0 None
2018-07-21 12:00 - - - 0 250° 6 - - - 0 None
2018-07-21 11:00 - - - 0 180° 5 - - - 0 None
2018-07-21 10:00 - - - 0 170° 6 - - - 0 None
2018-07-21 09:00 - - - 0 180° 6 - - - 0 None
2018-07-21 08:00 - - - 0 210° 6 - - - 0 None
2018-07-21 07:00 - - - 0 190° 5 - - - 0 None
2018-07-21 06:00 - - - 0 220° 6 - - - 0 None
2018-07-21 05:00 - - - 0 250° 5 - - - 0 None
2018-07-21 04:00 - - - 0 180° 7 - - - 0 None
2018-07-21 03:00 - - - 0 140° 8 - - - 0 None

Support USWX by starting your Amazon purchase here.